Regional Weather Roundup
Issued by NWS

Current Version | Previous Version | Graphics & Text | Print | Product List | Glossary On
Versions: 1 2 3 4 5 6 7 8 9 10 11 12 13 14 15 16 17 18 19 20 21 22 23 24 25 26 27 28 29 30 31 32 33 34 35 36 37 38 39 40 41 42 43 44 45 46 47 48 49 50
000
ASHW40 PHFO 222310
RWRHI

WEATHER ROUNDUP FOR HAWAII
NATIONAL WEATHER SERVICE HONOLULU HI
100 PM HST WED OCT 22 2014

THIS IS AN AUTOMATED REPORT THAT HAS NOT BEEN QUALITY CONTROLLED.

NOTE..."FAIR" INDICATES FEW OR NO CLOUDS BELOW 12,000 FEET WITH NO
SIGNIFICANT WEATHER AND/OR OBSTRUCTIONS TO VISIBILITY.

* - THESE SITES REPORT LIMITED FIELDS

HIZ001>004-230000-
KAUAI-NIIHAU-

CITY           SKY/WX    TMP DP  RH WIND       PRES   REMARKS
LIHUE APT      FAIR      84  74  71 E10       30.01F HX  91
PORT ALLEN*      N/A     79 N/A N/A SE9         N/A
POIPU*           N/A     82 N/A N/A S2          N/A
PRINCEVILLE*     N/A     81 N/A N/A MISG        N/A
KOKOLE POINT*  NOT AVBL
MOLOAA DAIRY*  NOT AVBL
WAIMEA HTS*    NOT AVBL
PUU OPAE*      NOT AVBL
PUU LUA*       NOT AVBL
MAKAHA RIDGE*  NOT AVBL
$$

HIZ005>011-230000-
OAHU-

CITY           SKY/WX    TMP DP  RH WIND       PRES   REMARKS
HONOLULU       PTSUNNY   80  76  87 N6        29.99F
KALAELOA       CLOUDY    82  73  74 VRB3      30.00F
KANEOHE MCB    RAIN      78  75  90 E6        29.99F
WHEELER FIELD  LGT RAIN  75  72  90 VRB2      30.02F FOG
BELLOWS*       NOT AVBL
KAHUKU*        NOT AVBL
WHEELER*       NOT AVBL
WAIANAE HARBOR NOT AVBL
DILLINGHAM*      N/A    N/A N/A N/A S3          N/A
KAHUKU TRN*      N/A     82  75  78 E3G15       N/A
KAWAILOA*        N/A     77  75  94 NW1         N/A
KII*             N/A     79  75  89 E3G18       N/A
MAKUA RANGE*     N/A     79  72  78 E9          N/A
OAHU FOREST NW NOT AVBL
SCHOFIELD BRK*   N/A     68  64  88 CALM        N/A
SCHOFIELD S*   NOT AVBL
WAIANAE VLY*   NOT AVBL
KUAOKALA*      NOT AVBL
HONOULIUULI*   NOT AVBL
MOKUOLOE IS*   NOT AVBL
PALEHUA*       NOT AVBL
WAIAWA PHB*    NOT AVBL
$$

HIZ012>013-230000-
MOLOKAI-

CITY           SKY/WX    TMP DP  RH WIND       PRES   REMARKS
MOLOKAI AIRPT  PTSUNNY   83  75  77 N8        30.01F HX  90
KALAUPAPA      NOT AVBL
MAKAPULAPAI*   NOT AVBL
MOLOKAI 1*     NOT AVBL
PUU ALII*      NOT AVBL
$$

HIZ016-230000-
KAHOOLAWE-

CITY           SKY/WX    TMP DP  RH WIND       PRES   REMARKS
KAHOOLAWE*     NOT AVBL
HAKIOAWA*      NOT AVBL
HONOKANAIA*      N/A     82  72  72 SW6G12    30.01F
KANELOA*         N/A     82  73  74 N10G16    29.25F
KEALIALALO*    NOT AVBL
LUA MAKIKA*    NOT AVBL
$$

HIZ014>015-230000-
LANAI-

CITY           SKY/WX    TMP DP  RH WIND       PRES   REMARKS
LANAI CITY     LGT RAIN  75  74  97 CALM      30.06F FOG
LANAI 1*       NOT AVBL
$$

HIZ017>028-230000-
MAUI-

CITY           SKY/WX    TMP DP  RH WIND       PRES   REMARKS
KAHULUI        RAIN      77  73  87 E8        30.00F
KAPALUA-W MAUI LGT RAIN  77  73  88 N7        29.99F
HANA AIRPORT   CLOUDY    81  73  78 E8        30.02S
HANA*          NOT AVBL
HALEAKALA SUMM   N/A     55  48  76 NE9G22      N/A
MAALAEA BAY*   NOT AVBL
HALEAKALA*     NOT AVBL
KAUPO GAP*     NOT AVBL
KULA 1*          N/A     61  60  96 NW3         N/A
$$

HIZ023>026-230000-
BIG ISLAND OF HAWAII COAST AND LOWER SLOPES-

CITY           SKY/WX    TMP DP  RH WIND       PRES   REMARKS
KAILUA KONA    FAIR      86  73  65 NW13      29.96F HX  93
HILO           PTSUNNY   84  71  65 E15       29.99F
HONOKAA*       NOT AVBL
KAWAIHAE MWT*  NOT AVBL
KAWAIHAE*        N/A     82 N/A N/A SW8         N/A
SOUTH POINT*   NOT AVBL
UPOLU AIRPORT* NOT AVBL
KAMUELA*       CLOUDY    75  66  73 VRB10     30.10F
HAKALAU*         N/A     69  58  69 SE6G12      N/A
KALOKO-HONOKO* NOT AVBL
PALI 2*          N/A     73  -6   4 SE10G16     N/A
KEALAKOMO*       N/A     84  73  70 E14         N/A  HX  91
KAUPULEHU*     NOT AVBL
KAPAPALA*        N/A     79  67  67 SE2G13      N/A
LOWER KAHUKU*  NOT AVBL
PUHE CS*       NOT AVBL
PUHO CS*       NOT AVBL
PTA KEAMUKU*     N/A     72  66  83 W10         N/A
WAIKOLOA*      NOT AVBL
$$

HIZ027>028-230000-
BIG ISLAND OF HAWAII INTERIOR AND SUMMMITS-

CITY           SKY/WX    TMP DP  RH WIND       PRES   REMARKS
BRADSHAW FIELD PTSUNNY   68  59  73 W9        30.35F
MK VISITOR CEN NOT AVBL
MAUNA KEA*       N/A     43  36  75 SE1         N/A
MAUNA LOA*       N/A     48  41  76 MISG        N/A
MAUNA LOA 1*   NOT AVBL
PTA KIPUKA*      N/A     70  59  68 N6G13       N/A
PTA RANGE 17*    N/A     66  59  77 NW10G17     N/A
PTA WEST*        N/A     70  64  83 N9G16       N/A
NENE CABIN*    NOT AVBL
AHUMOA*        NOT AVBL
PTA PORTABLE*  NOT AVBL
PUU MALI*      NOT AVBL
$$

HIC003-230000-
NORTHWEST ISLANDS-

CITY           SKY/WX    TMP DP  RH WIND       PRES   REMARKS
MIDWAY ISLAND  SUNNY     88  79  74 S8        29.96F HX 102
MIDWAY NOS*    NOT AVBL
FRENCH FRIGATE NOT AVBL
$$

PHZ110>124-180-230000-
BUOY REPORTS

STATION/POSITION TIME  TEMP    WIND        PRES    WAVE   SWELL
                       AIR SEA DIR/SP/G            HT/PER HT/DIR
                 (UTC) (F)     (DEG/KT/KT) (MB)    (FT/S) (FT/D)
BUOY 51001       NOT AVBL
BUOY 51101       NOT AVBL
BUOY 51100       2300   79 80   90/ 12/ 14 1016.8F
BUOY 51003       2200   81 82  130/ 10/ 12 1015.7F   6/11   5
BUOY 51004       2245   80 81   70/ 16/ 17 1013.8F   8/12
BARBERS PT BUOY  NOT AVBL
WAIMEA BAY BUOY  2300      82                N/A     4/11   2/350
KAILUA BAY BUOY  2300      82                N/A     5/10   2/360
LANAI BUOY       2300      82                N/A     3/13   3/200
BARBERS PT 2     2300      82                N/A     4/15   2/200
PAUWELA MAUI     2300      80                N/A     6/11   3/360
HILO             2300      81                N/A     7/11   3/360
KANEOHE BAY BUOY NOT AVBL
HANALEI KAUAI    NOT AVBL
KAHULUI HARBOR   2300   78 81   70/  8/ 15 1015.4F
HONOLULU HARBOR  2300   80     310/  5/  7 1015.9F
KILO NALU        NOT AVBL
HILO HARBOR      2300   87      90/ 10/ 14 1015.2F
MOKUOLOE         2300   81     110/  4/ 11   N/A
NAWILIWILI       2300      82                N/A
WHOTS BUOY       NOT AVBL
BUOY 51028       NOT AVBL
$$

......................KEY........................................
  SKY/WX - SKY CONDITIONS/PRESENT WEATHER
  TMP    - TEMPERATURE IN FAHRENHEIT
  DWPT   - DEWPOINT IN FAHRENHEIT
  RH     - RELATIVE HUMIDITY IN PERCENT
  WIND   - DIRECTION AND SPEED /MPH FOR ISLANDS...KTS FOR BUOYS/
  PRES   - MEAN SEA LEVEL PRESSURE IN INCHES OF HG
  VSB    - VISIBILITY IN MILES
  HX     - HEAT INDEX
  WCI    - WIND CHILL INDEX
  VRB    - VARIABLE WIND DIRECTION
  N/A    - NOT AVAILABLE



USA.gov is the U.S. government's official web portal to all federal, state and local government web resources and services.